Location: Bun Machan
(52.1403°N, 7.3744°W)
Time: 08:34:57
(UTC+00:00)

ALOS 2 - Pass Details

Date: 14 July 2020
Orbit: 630 x 632 km, 97.9° (Epoch: 04 August)

Event Time Altitude Azimuth Distance (km) Brightness Sun altitude
Exits shadow 00:45:18 19° 227° (SW) 1,492 4.1 -16.2°
Maximum altitude 00:47:17 27° 266° (W) 1,232 4.0 -16.2°
Drops below altitude 10° 00:51:01 10° 325° (NW) 2,025 5.9 -16.1°
Sets 00:53:32 0° 337° (NNW) 2,938 7.2 -16.1°
